Location: Eimen
(51.8766°N, 9.7806°E)
Time: 08:51:16
(UTC+00:00)

Cosmos 1140 Rocket - Pass Details

Date: 23 May 2024
Orbit: 743 x 764 km, 74.1° (Epoch: 23 June)

Event Time Altitude Azimuth Distance (km) Brightness Sun altitude
Exits shadow 00:22:30 16° 239° (WSW) 1,890 5.1 -16.1°
Maximum altitude 00:26:16 42° 304° (NW) 1,084 4.4 -15.9°
Drops below altitude 10° 00:31:14 10° 15° (NNE) 2,305 7.4 -15.7°
Sets 00:33:45 0° 23° (NNE) 3,232 8.6 -15.6°
